EST,Max TemperatureF,Mean TemperatureF,Min TemperatureF,Max Dew PointF,MeanDew PointF,Min DewpointF,Max Humidity, Mean Humidity, Min Humidity, Max Sea Level PressureIn, Mean Sea Level PressureIn, Min Sea Level PressureIn, Max VisibilityMiles, Mean VisibilityMiles, Min VisibilityMiles, Max Wind SpeedMPH, Mean Wind SpeedMPH, Max Gust SpeedMPH,PrecipitationIn, CloudCover, Events, WindDirDegrees
2010-12-1,62,51,39,59,50,29,93,85,64,30.08,29.74,29.48,10,5,1,25,13,38,1.34,8,Rain,171
2010-12-2,42,34,26,27,23,21,92,63,43,30.11,30.03,29.87,10,10,10,15,6,29,0.00,3,,272
2010-12-3,40,31,21,26,23,19,92,78,54,30.06,29.99,29.91,10,10,7,8,1,13,0.00,2,,335
2010-12-4,40,30,20,25,19,16,92,67,40,29.90,29.79,29.68,10,10,7,18,5,25,0.00,3,,293
2010-12-5,35,31,27,23,18,14,69,61,43,29.67,29.64,29.57,10,10,6,18,10,23,T,6,Snow,285
2010-12-6,33,31,28,20,15,12,63,53,43,29.57,29.46,29.39,10,10,8,22,14,30,T,8,Snow,276
2010-12-7,35,32,28,19,16,13,63,54,47,29.68,29.52,29.40,10,10,10,21,13,29,0.00,8,,266
2010-12-8,32,27,21,15,9,4,58,47,36,30.06,29.87,29.68,10,10,10,20,11,28,0.00,4,,265
2010-12-9,30,21,12,10,7,3,73,56,31,30.39,30.22,30.06,10,10,10,16,7,24,0.00,1,,270
2010-12-10,28,19,10,23,14,6,84,71,53,30.43,30.35,30.25,10,9,2,3,1,5,T,5,Snow,173
2010-12-11,43,32,20,25,23,19,96,75,49,30.26,30.22,30.14,10,9,5,9,1,12,0.00,2,,193
2010-12-12,58,41,24,54,41,24,93,87,72,30.11,29.65,29.23,10,6,2,21,6,33,0.83,8,Rain,121
2010-12-13,45,34,22,43,34,17,100,88,63,29.30,29.18,29.11,10,6,2,18,6,25,0.16,8,Rain-Snow,296
2010-12-14,24,21,17,18,10,2,84,68,45,29.66,29.45,29.30,10,7,2,16,7,22,0.01,7,Snow,301
2010-12-15,26,22,17,10,8,5,67,56,42,29.74,29.69,29.64,10,10,10,21,9,29,0.00,6,,273
2010-12-16,32,24,15,16,12,10,80,59,43,29.81,29.76,29.73,10,10,9,18,7,23,0.00,1,,226
2010-12-17,37,24,10,21,15,8,92,68,40,30.05,29.92,29.77,10,10,8,13,3,16,0.00,2,,231
2010-12-18,36,28,19,20,18,16,84,69,47,30.12,30.07,30.04,10,10,8,8,2,12,0.00,1,,229
2010-12-19,31,23,15,22,17,12,92,79,68,30.08,30.01,29.92,10,8,6,8,1,10,0.00,2,,345
2010-12-20,33,23,12,19,15,8,92,70,51,29.94,29.89,29.85,10,9,5,15,5,20,0.00,0,,343
2010-12-21,38,31,24,22,19,16,74,61,48,29.90,29.87,29.83,10,10,10,16,7,22,0.00,5,,342
2010-12-22,37,33,29,22,21,19,75,64,52,29.87,29.81,29.75,10,10,10,14,8,22,0.00,6,,329
2010-12-23,34,31,28,23,19,16,69,62,47,29.99,29.85,29.77,10,9,3,20,8,25,T,6,Snow,328
2010-12-24,37,31,24,19,18,16,75,62,44,30.09,30.05,29.99,10,10,10,14,7,20,0.00,0,,357
2010-12-25,29,25,21,18,16,14,77,68,58,30.06,30.01,29.96,10,10,10,13,5,17,0.00,3,,359
2010-12-26,25,21,17,16,14,11,92,80,67,29.98,29.67,29.28,10,3,0,68,13,186,0.14,8,Fog-Snow,4
2010-12-27,28,23,18,19,13,2,92,66,33,29.68,29.32,29.19,10,5,0,,,,0.03,5,Fog-Snow,-1
2010-12-28,37,27,17,23,15,0,78,58,39,29.87,29.78,29.70,10,10,10,22,9,29,0.00,4,,275
2010-12-29,39,26,13,24,21,13,92,72,50,30.13,30.00,29.87,10,9,6,14,3,18,0.00,5,,296
2010-12-30,38,22,6,24,15,3,92,76,52,30.25,30.18,30.14,10,8,6,8,1,9,0.00,0,,218
2010-12-31,48,35,21,30,26,19,88,66,46,30.17,30.13,30.09,10,8,5,9,3,13,0.00,2,,218